SCP
0 0 0 0 0 0 0 0 0 0 0 0 0 0 0 0 0 0 0 0 -0 0 0 0 0 0 0 0 0 0 0 0 0 0 0 0 0 0 0 0 0 0 0
0 0 0 0 0 0 0 0 0 0 0 0 0 0 0 0 0 0 0 0 0 0 0 0 0 0 0 0 0 0 0 0 0 0 0 0 0 0 0 0 0 0 0
0 0 0 0 0 0 0 0 0 0 0 0 0 0 0 0 0 0 0 0 0 0 0 0 0 0 0 0 0 0 0 0 0 0 0 0 0 0 0 0 0 0 0
0 0 0 0 0 0 0 0 0 0 0 0 0 0 0 0 0 0 0 0 0 0 0 0 0 0 0 0 0 0 0 0 0 0 0 0 0 0 0 0 0 0 0
0 0 0 0 0 0 0 0 0 0 0 0 0 0 0 0 0 0 0 0 0 0 0 0 0 0 0 0 0 0 0 0 0 0 0 0 0 0 0 0 0 0 0
0 0 0 0 0 0 0 0 0 0 0 0 0 0 0 0 0 0 0 0 0 0 0 0 0 0 0 0 0 0 0 0 0 0 0 0 0 0 0 0 0 0 0
0 0 0 0 0 0 0 0 0 0 0 0 0 0 0 0 0 0 0 0 0 0 0 0 0 0 0 0 0 0 0 0 0 0 0 0 0 0 0 0 0 0 0
0 0 0 0 0 0 0 0 0 0 0 0 0 0 0 0 0 0 0 0 0 0 0 0 0 0 0 0 0 0 0 0 0 0 0 0 0 0 0 0 0 0 0
0 0 0 0 0 0 0 0 0 0 0 0 0 0 0 0 0 0 0 0 0 0 0 0 0 0 0 0 0 0 0 0 0 0 0 0 0 0 0 0 0 0 0
0 0 0 0 0 0 0 0 0 0 0 0 0 0 0 0 0 0 0 0 0 0 0 0 0 0 0 0 0 0 -0 0 0 0 0 0 0 0 0 0 0 0 0
0 0 0 0 0 0 0 0 0 0 0 0 0 0 0 0 0 0 0 0 0 0 0 0 0 0 0 0 0 0 0 0 0 0 0 0 0 0 0 0 0 0 0
0 0 0 0 0 0 0 0 0 0 0 0 0 0 0 0 0 0 0 0 0 0 0 0 0 0 0 0 0 0 0 0 0 0 0 0 0 0 0 0 0 0 0
0 0 0 0 0 0 0 0 0 0 0 0 0 0 0 0 0 0 0 0 0 0 0 -0 -0 0 0 0 0 0 0 0 0 0 0 0 0 0 0 0 0 0 0
0 0 0 0 0 0 0 0 0 0 0 0 0 0 0 0 0 0 0 0 0 0 0 0 0 0 0 0 0 0 0 0 0 0 0 0 0 0 0 0 0 0 0
0 0 0 0 0 0 0 0 0 0 0 0 0 0 0 0 0 0 0 0 0 0 -0 -0 0 0 0 0 0 0 0 0 0 0 0 -0 0 0 0 0 0 0 0
0 0 0 0 0 0 0 0 0 0 0 0 0 0 0 0 0 -0 -0 -0 0 0 0 0 0 0 0 0 0 0 0 0 0 0 0 -0 0 0 0 0 0 0 0
0 0 0 0 0 0 0 0 0 0 0 0 0 0 0 0 0 0 -0 0 0 0 0 0 0 0 0 0 0 0 0 0 0 0 0 0 0 0 0 0 0 0 0
0 0 0 0 0 0 0 0 0 0 0 0 0 0 0 0 0 0 0 0 0 0 0 0 0 0 0 0 0 0 0 0 0 0 0 0 0 0 0 0 0 0 0
0 0 0 0 0 0 0 0 0 0 0 0 0 0 0 0 0 0 0 0 0 0 0 0 0 0 0 0 0 0 0 0 0 0 0 0 0 0 0 0 0 0 0
0 0 0 0 0 0 0 0 0 0 0 0 0 0 0 0 0 0 0 0 0 0 0 0 0 0 0 0 0 0 0 0 0 0 0 0 0 0 0 0 0 0 0
0 0 0 0 0 0 0 0 0 0 0 0 0 0 0 0 0 0 0 0 0 0 0 0 0 0 0 0 0 0 0 0 0 0 0 0 -0 0 0 0 0 0 0
0 0 0 0 0 0 0 0 0 0 0 0 0 0 0 0 0 0 0 0 0 0 0 0 0 0 0 0 0 0 0 0 0 0 0 -0 0 -0 0 0 0 0 0
0 0 0 0 0 0 0 0 0 0 0 0 0 0 0 0 0 0 0 0 0 0 0 0 0 0 0 0 0 0 0 0 0 0 0 0 0 -0 0 0 0 0 0
0 0 0 0 0 0 0 0 0 0 0 0 0 0 0 0 0 0 0 0 0 0 0 0 0 0 0 0 0 0 0 0 0 0 -0 0 0 -0 0 0 0 0 0
0 0 0 0 0 0 0 0 0 0 0 0 0 0 0 0 0 0 0 0 0 0 0 0 0 0 0 -0 -0 -0 0 0 -0 0 0 0 0 0 0 0 0 0 0
0 0 0 0 0 0 0 0 0 0 0 0 0 0 0 0 0 0 0 0 0 0 0 0 0 -0 -0 -0 -0 -0 0 -0 0 0 0 0 0 0 0 0 0 0 0
Wind_Speed_500mb
33 39 45 48 51 54 59 64 64 69 72 73 71 70 72 77 80 81 81 80 73 74 71 69 67 61 60 60 60 63 62 59 71 81 71 68 73 78 78 72 80 82 80
39 42 46 50 54 56 59 64 68 69 70 71 68 68 72 75 79 83 85 82 77 74 71 61 64 60 61 62 62 63 62 62 66 85 77 73 70 78 75 77 75 79 85
52 53 52 54 56 57 59 64 67 68 72 72 66 67 72 75 79 82 82 79 77 71 66 64 67 66 69 62 62 65 64 63 66 75 85 72 68 69 77 73 74 72 82
52 58 59 58 59 59 60 66 70 70 74 74 69 69 72 77 82 85 84 82 80 80 76 77 71 66 67 66 64 66 69 70 70 76 87 78 69 70 66 74 78 69 77
51 54 58 59 61 60 63 69 73 73 76 75 72 73 76 81 84 87 90 88 85 82 79 74 72 66 70 69 68 73 71 72 76 80 88 85 77 70 66 72 75 82 77
57 59 57 61 62 59 64 70 73 76 76 74 73 75 82 85 88 90 89 89 81 80 79 78 75 71 64 62 64 65 66 70 76 78 87 91 99 80 70 70 72 76 83
63 65 63 64 63 63 67 71 73 76 76 76 78 81 88 90 94 96 90 80 77 77 72 70 68 66 67 65 71 68 69 71 68 72 85 97 98 88 83 86 81 78 84
68 65 63 64 62 63 67 69 72 73 75 79 84 88 95 101 98 94 81 71 68 65 61 63 65 68 66 69 71 80 84 81 76 76 81 97 95 92 88 85 93 90 90
66 61 63 60 59 63 68 70 70 74 78 82 88 95 100 105 93 82 67 63 62 62 60 63 65 69 66 62 68 81 91 93 87 79 80 88 91 87 87 89 96 87 90
59 61 59 57 59 64 67 68 69 72 80 87 94 97 97 89 77 70 56 59 61 66 69 67 67 63 63 63 68 80 95 99 97 94 91 88 89 94 90 86 88 94 89
63 60 58 57 60 64 65 64 68 73 81 89 96 96 86 72 71 61 51 56 61 67 72 72 70 72 70 70 72 81 90 90 97 95 89 90 90 89 89 86 86 88 96
64 60 56 58 59 60 61 64 68 73 83 90 91 87 80 68 62 57 54 52 55 63 72 78 78 73 79 80 76 74 75 76 81 80 86 89 89 86 86 80 77 78 78
62 58 56 58 57 57 59 64 70 73 80 83 80 81 78 70 63 60 56 56 60 63 71 73 73 75 78 77 74 71 71 70 64 77 77 78 85 81 74 71 69 69 68
59 55 56 56 55 55 58 63 68 70 74 74 75 74 72 67 66 67 68 72 70 71 72 80 82 79 73 73 73 69 69 66 64 70 69 65 73 71 65 61 58 54 58
54 55 55 52 52 57 61 64 68 63 63 67 67 63 61 66 66 65 68 73 74 74 78 85 78 77 76 76 76 73 71 69 64 64 61 56 68 69 61 54 50 45 46
53 54 51 49 52 58 64 71 68 63 57 63 61 52 57 61 61 61 65 66 64 67 69 69 72 72 75 77 78 78 73 70 64 64 57 51 63 66 60 52 44 41 43
51 49 48 52 57 61 65 69 76 72 57 55 61 57 58 60 61 62 59 62 62 61 60 64 68 71 73 75 75 74 76 70 64 62 55 48 58 65 56 48 39 34 41
45 46 49 54 60 64 64 65 66 69 74 63 49 63 59 61 61 56 54 60 63 59 60 63 66 70 72 74 74 73 72 69 64 61 53 45 51 63 55 45 35 33 39
42 46 52 58 62 63 63 62 62 62 64 65 62 53 60 59 59 52 54 55 60 62 64 67 68 70 72 72 71 70 69 68 64 61 52 44 48 59 52 42 34 34 35
44 49 55 59 60 60 58 58 59 59 60 61 60 59 58 62 62 61 60 63 63 61 62 66 68 71 72 71 70 69 70 68 64 60 52 43 40 54 50 38 35 33 32
48 54 58 57 57 56 55 54 54 56 57 57 57 54 52 52 57 58 62 66 66 64 63 64 65 70 71 69 69 69 70 68 64 61 54 43 36 50 49 34 30 26 30
52 54 54 53 52 52 52 51 51 51 52 54 54 54 50 48 51 55 60 66 65 62 62 65 65 67 69 68 69 70 70 68 64 61 56 47 38 36 45 33 27 26 25
50 48 48 48 49 50 49 48 47 47 48 49 50 53 52 50 52 54 60 67 65 65 64 62 63 68 67 65 62 65 70 69 67 64 62 52 41 32 39 35 29 24 25
42 43 44 45 46 46 46 45 44 43 44 46 48 49 49 50 52 55 60 67 66 65 65 64 62 65 67 66 63 62 64 66 65 63 59 54 41 28 33 35 27 23 24
39 40 41 42 43 44 44 43 41 42 43 43 46 49 49 48 52 54 58 67 68 66 70 67 61 65 67 67 66 69 68 63 57 53 51 48 35 25 33 34 27 22 29
37 38 39 40 40 41 42 43 42 42 43 43 45 48 50 50 54 55 59 69 71 68 70 71 64 63 67 75 75 72 69 62 54 46 42 38 31 24 29 27 25 24 34
Wind_Direction_500mb
317 319 317 318 319 319 323 327 326 326 330 329 326 325 327 328 328 324 320 315 309 305 303 300 297 294 289 289 289 288 288 288 290 294 297 301 301 300 294 292 282 280 281
306 310 313 313 312 313 318 322 323 322 324 323 321 321 324 326 327 325 321 316 309 302 300 297 293 292 288 286 286 286 287 289 289 292 298 301 299 301 298 296 294 281 278
294 299 306 311 309 306 309 316 318 317 319 320 316 318 320 323 324 324 321 315 307 298 293 291 290 289 288 288 287 284 286 288 289 291 294 298 299 301 302 299 294 290 279
297 291 296 303 306 305 306 312 315 314 316 317 313 314 317 320 321 322 321 312 304 297 293 292 293 292 290 292 289 286 286 291 291 293 293 295 295 299 297 299 301 298 292
300 298 297 300 303 302 304 310 312 313 314 313 312 313 314 316 319 320 318 310 302 298 294 291 290 286 286 286 287 289 290 291 289 291 291 292 292 296 293 296 291 294 287
301 300 298 300 301 299 302 307 308 310 311 310 310 311 312 314 316 317 313 306 298 295 294 294 293 293 294 289 287 285 284 286 287 287 287 286 287 288 291 292 289 289 289
299 298 295 297 298 298 301 304 306 308 308 309 310 311 312 312 315 315 310 300 295 294 294 295 296 292 293 295 293 291 288 287 283 284 281 280 285 285 289 288 289 282 279
298 293 291 294 294 295 301 304 306 307 308 310 311 312 312 314 317 314 308 300 295 296 295 293 294 296 294 294 294 293 294 293 291 288 283 284 284 283 283 284 286 280 280
296 290 292 292 293 299 303 305 307 309 310 312 313 314 315 316 317 313 308 305 302 300 302 298 294 296 298 298 296 295 293 292 297 292 284 283 285 283 279 282 277 274 273
292 291 291 290 294 300 303 306 309 310 310 312 313 313 314 318 316 313 309 306 305 303 302 300 300 300 300 299 297 296 297 298 301 300 297 294 293 291 289 278 273 264 262
292 288 287 290 297 300 302 306 307 309 311 312 313 315 318 325 319 315 312 307 304 304 305 307 302 303 302 302 301 296 291 297 296 295 295 297 299 296 292 287 279 269 260
289 286 286 293 297 298 302 306 308 312 315 315 315 316 321 326 324 314 313 308 307 306 305 303 303 307 305 305 303 305 303 300 298 302 302 299 299 293 293 291 286 279 272
285 283 287 293 295 298 302 306 311 316 316 314 314 316 321 324 323 320 314 313 311 308 304 306 305 304 307 311 312 313 311 310 303 301 299 294 297 302 298 292 287 283 275
281 281 286 289 292 297 303 309 312 317 316 312 313 317 317 320 322 321 322 319 315 312 316 313 306 308 313 314 314 315 315 315 310 308 307 303 307 309 302 296 291 283 273
278 283 286 289 295 302 307 311 314 318 313 311 312 312 313 311 318 317 315 314 315 316 311 307 314 319 320 321 321 321 321 322 316 315 312 307 311 314 308 302 294 281 261
281 284 287 293 300 306 310 313 314 316 316 311 311 308 309 311 312 315 315 315 316 314 311 316 319 322 324 324 324 323 322 323 320 318 316 314 318 315 309 305 292 276 257
286 287 292 299 304 309 311 313 313 316 316 314 315 317 316 316 316 319 320 318 318 322 324 325 325 326 326 326 326 325 323 324 322 322 320 314 316 317 310 305 295 276 256
283 288 295 300 305 309 311 311 312 314 316 320 317 319 322 320 322 325 324 324 325 328 330 331 331 330 329 327 327 325 325 326 325 325 320 320 320 318 310 304 290 267 255
285 292 299 303 307 309 310 311 312 313 314 317 320 320 321 321 324 333 335 332 330 329 331 332 334 333 332 329 328 327 327 327 327 327 322 320 315 319 311 301 286 267 258
292 297 301 304 307 309 309 310 312 313 314 316 320 325 324 323 330 333 336 338 336 332 330 331 334 335 333 332 331 329 327 328 328 329 324 323 318 320 312 298 284 267 256
298 302 304 307 308 309 310 311 311 313 314 317 320 324 327 322 326 330 335 337 337 334 332 331 333 336 336 334 333 330 328 326 328 329 326 321 322 315 314 297 284 265 246
304 304 306 309 309 309 310 311 312 313 315 318 321 324 326 325 327 331 334 336 337 336 334 333 333 337 337 335 334 331 330 328 329 328 324 318 314 309 310 293 279 259 241
306 309 311 312 311 312 312 314 315 316 318 320 322 325 328 329 330 333 335 337 338 338 337 334 333 337 338 335 333 333 331 331 330 326 321 315 309 303 298 287 272 254 230
313 314 316 316 316 315 315 317 318 318 321 324 325 327 328 330 331 333 336 338 338 338 339 337 336 335 337 338 336 335 331 328 323 319 316 309 299 293 286 282 268 246 218
320 321 323 321 319 319 319 320 321 322 324 327 327 329 330 331 333 334 337 340 338 337 342 339 337 339 339 340 341 340 332 323 315 311 307 302 286 277 272 276 257 226 202
325 325 324 323 322 322 321 322 324 325 325 327 328 330 331 333 336 335 338 340 340 338 338 340 338 341 345 347 342 336 331 323 313 306 299 288 270 260 269 261 243 216 195
Wind_Speed_850mb
33 39 45 48 51 54 59 64 64 69 72 73 71 70 72 77 80 81 81 80 73 74 71 69 67 61 60 60 60 63 62 59 71 81 71 68 73 78 78 72 80 82 80
39 42 46 50 54 56 59 64 68 69 70 71 68 68 72 75 79 83 85 82 77 74 71 61 64 60 61 62 62 63 62 62 66 85 77 73 70 78 75 77 75 79 85
52 53 52 54 56 57 59 64 67 68 72 72 66 67 72 75 79 82 82 79 77 71 66 64 67 66 69 62 62 65 64 63 66 75 85 72 68 69 77 73 74 72 82
52 58 59 58 59 59 60 66 70 70 74 74 69 69 72 77 82 85 84 82 80 80 76 77 71 66 67 66 64 66 69 70 70 76 87 78 69 70 66 74 78 69 77
51 54 58 59 61 60 63 69 73 73 76 75 72 73 76 81 84 87 90 88 85 82 79 74 72 66 70 69 68 73 71 72 76 80 88 85 77 70 66 72 75 82 77
57 59 57 61 62 59 64 70 73 76 76 74 73 75 82 85 88 90 89 89 81 80 79 78 75 71 64 62 64 65 66 70 76 78 87 91 99 80 70 70 72 76 83
63 65 63 64 63 63 67 71 73 76 76 76 78 81 88 90 94 96 90 80 77 77 72 70 68 66 67 65 71 68 69 71 68 72 85 97 98 88 83 86 81 78 84
68 65 63 64 62 63 67 69 72 73 75 79 84 88 95 101 98 94 81 71 68 65 61 63 65 68 66 69 71 80 84 81 76 76 81 97 95 92 88 85 93 90 90
66 61 63 60 59 63 68 70 70 74 78 82 88 95 100 105 93 82 67 63 62 62 60 63 65 69 66 62 68 81 91 93 87 79 80 88 91 87 87 89 96 87 90
59 61 59 57 59 64 67 68 69 72 80 87 94 97 97 89 77 70 56 59 61 66 69 67 67 63 63 63 68 80 95 99 97 94 91 88 89 94 90 86 88 94 89
63 60 58 57 60 64 65 64 68 73 81 89 96 96 86 72 71 61 51 56 61 67 72 72 70 72 70 70 72 81 90 90 97 95 89 90 90 89 89 86 86 88 96
64 60 56 58 59 60 61 64 68 73 83 90 91 87 80 68 62 57 54 52 55 63 72 78 78 73 79 80 76 74 75 76 81 80 86 89 89 86 86 80 77 78 78
62 58 56 58 57 57 59 64 70 73 80 83 80 81 78 70 63 60 56 56 60 63 71 73 73 75 78 77 74 71 71 70 64 77 77 78 85 81 74 71 69 69 68
59 55 56 56 55 55 58 63 68 70 74 74 75 74 72 67 66 67 68 72 70 71 72 80 82 79 73 73 73 69 69 66 64 70 69 65 73 71 65 61 58 54 58
54 55 55 52 52 57 61 64 68 63 63 67 67 63 61 66 66 65 68 73 74 74 78 85 78 77 76 76 76 73 71 69 64 64 61 56 68 69 61 54 50 45 46
53 54 51 49 52 58 64 71 68 63 57 63 61 52 57 61 61 61 65 66 64 67 69 69 72 72 75 77 78 78 73 70 64 64 57 51 63 66 60 52 44 41 43
51 49 48 52 57 61 65 69 76 72 57 55 61 57 58 60 61 62 59 62 62 61 60 64 68 71 73 75 75 74 76 70 64 62 55 48 58 65 56 48 39 34 41
45 46 49 54 60 64 64 65 66 69 74 63 49 63 59 61 61 56 54 60 63 59 60 63 66 70 72 74 74 73 72 69 64 61 53 45 51 63 55 45 35 33 39
42 46 52 58 62 63 63 62 62 62 64 65 62 53 60 59 59 52 54 55 60 62 64 67 68 70 72 72 71 70 69 68 64 61 52 44 48 59 52 42 34 34 35
44 49 55 59 60 60 58 58 59 59 60 61 60 59 58 62 62 61 60 63 63 61 62 66 68 71 72 71 70 69 70 68 64 60 52 43 40 54 50 38 35 33 32
48 54 58 57 57 56 55 54 54 56 57 57 57 54 52 52 57 58 62 66 66 64 63 64 65 70 71 69 69 69 70 68 64 61 54 43 36 50 49 34 30 26 30
52 54 54 53 52 52 52 51 51 51 52 54 54 54 50 48 51 55 60 66 65 62 62 65 65 67 69 68 69 70 70 68 64 61 56 47 38 36 45 33 27 26 25
50 48 48 48 49 50 49 48 47 47 48 49 50 53 52 50 52 54 60 67 65 65 64 62 63 68 67 65 62 65 70 69 67 64 62 52 41 32 39 35 29 24 25
42 43 44 45 46 46 46 45 44 43 44 46 48 49 49 50 52 55 60 67 66 65 65 64 62 65 67 66 63 62 64 66 65 63 59 54 41 28 33 35 27 23 24
39 40 41 42 43 44 44 43 41 42 43 43 46 49 49 48 52 54 58 67 68 66 70 67 61 65 67 67 66 69 68 63 57 53 51 48 35 25 33 34 27 22 29
37 38 39 40 40 41 42 43 42 42 43 43 45 48 50 50 54 55 59 69 71 68 70 71 64 63 67 75 75 72 69 62 54 46 42 38 31 24 29 27 25 24 34
Wind_Direction_850mb
317 319 317 318 319 319 323 327 326 326 330 329 326 325 327 328 328 324 320 315 309 305 303 300 297 294 289 289 289 288 288 288 290 294 297 301 301 300 294 292 282 280 281
306 310 313 313 312 313 318 322 323 322 324 323 321 321 324 326 327 325 321 316 309 302 300 297 293 292 288 286 286 286 287 289 289 292 298 301 299 301 298 296 294 281 278
294 299 306 311 309 306 309 316 318 317 319 320 316 318 320 323 324 324 321 315 307 298 293 291 290 289 288 288 287 284 286 288 289 291 294 298 299 301 302 299 294 290 279
297 291 296 303 306 305 306 312 315 314 316 317 313 314 317 320 321 322 321 312 304 297 293 292 293 292 290 292 289 286 286 291 291 293 293 295 295 299 297 299 301 298 292
300 298 297 300 303 302 304 310 312 313 314 313 312 313 314 316 319 320 318 310 302 298 294 291 290 286 286 286 287 289 290 291 289 291 291 292 292 296 293 296 291 294 287
301 300 298 300 301 299 302 307 308 310 311 310 310 311 312 314 316 317 313 306 298 295 294 294 293 293 294 289 287 285 284 286 287 287 287 286 287 288 291 292 289 289 289
299 298 295 297 298 298 301 304 306 308 308 309 310 311 312 312 315 315 310 300 295 294 294 295 296 292 293 295 293 291 288 287 283 284 281 280 285 285 289 288 289 282 279
298 293 291 294 294 295 301 304 306 307 308 310 311 312 312 314 317 314 308 300 295 296 295 293 294 296 294 294 294 293 294 293 291 288 283 284 284 283 283 284 286 280 280
296 290 292 292 293 299 303 305 307 309 310 312 313 314 315 316 317 313 308 305 302 300 302 298 294 296 298 298 296 295 293 292 297 292 284 283 285 283 279 282 277 274 273
292 291 291 290 294 300 303 306 309 310 310 312 313 313 314 318 316 313 309 306 305 303 302 300 300 300 300 299 297 296 297 298 301 300 297 294 293 291 289 278 273 264 262
292 288 287 290 297 300 302 306 307 309 311 312 313 315 318 325 319 315 312 307 304 304 305 307 302 303 302 302 301 296 291 297 296 295 295 297 299 296 292 287 279 269 260
289 286 286 293 297 298 302 306 308 312 315 315 315 316 321 326 324 314 313 308 307 306 305 303 303 307 305 305 303 305 303 300 298 302 302 299 299 293 293 291 286 279 272
285 283 287 293 295 298 302 306 311 316 316 314 314 316 321 324 323 320 314 313 311 308 304 306 305 304 307 311 312 313 311 310 303 301 299 294 297 302 298 292 287 283 275
281 281 286 289 292 297 303 309 312 317 316 312 313 317 317 320 322 321 322 319 315 312 316 313 306 308 313 314 314 315 315 315 310 308 307 303 307 309 302 296 291 283 273
278 283 286 289 295 302 307 311 314 318 313 311 312 312 313 311 318 317 315 314 315 316 311 307 314 319 320 321 321 321 321 322 316 315 312 307 311 314 308 302 294 281 261
281 284 287 293 300 306 310 313 314 316 316 311 311 308 309 311 312 315 315 315 316 314 311 316 319 322 324 324 324 323 322 323 320 318 316 314 318 315 309 305 292 276 257
286 287 292 299 304 309 311 313 313 316 316 314 315 317 316 316 316 319 320 318 318 322 324 325 325 326 326 326 326 325 323 324 322 322 320 314 316 317 310 305 295 276 256
283 288 295 300 305 309 311 311 312 314 316 320 317 319 322 320 322 325 324 324 325 328 330 331 331 330 329 327 327 325 325 326 325 325 320 320 320 318 310 304 290 267 255
285 292 299 303 307 309 310 311 312 313 314 317 320 320 321 321 324 333 335 332 330 329 331 332 334 333 332 329 328 327 327 327 327 327 322 320 315 319 311 301 286 267 258
292 297 301 304 307 309 309 310 312 313 314 316 320 325 324 323 330 333 336 338 336 332 330 331 334 335 333 332 331 329 327 328 328 329 324 323 318 320 312 298 284 267 256
298 302 304 307 308 309 310 311 311 313 314 317 320 324 327 322 326 330 335 337 337 334 332 331 333 336 336 334 333 330 328 326 328 329 326 321 322 315 314 297 284 265 246
304 304 306 309 309 309 310 311 312 313 315 318 321 324 326 325 327 331 334 336 337 336 334 333 333 337 337 335 334 331 330 328 329 328 324 318 314 309 310 293 279 259 241
306 309 311 312 311 312 312 314 315 316 318 320 322 325 328 329 330 333 335 337 338 338 337 334 333 337 338 335 333 333 331 331 330 326 321 315 309 303 298 287 272 254 230
313 314 316 316 316 315 315 317 318 318 321 324 325 327 328 330 331 333 336 338 338 338 339 337 336 335 337 338 336 335 331 328 323 319 316 309 299 293 286 282 268 246 218
320 321 323 321 319 319 319 320 321 322 324 327 327 329 330 331 333 334 337 340 338 337 342 339 337 339 339 340 341 340 332 323 315 311 307 302 286 277 272 276 257 226 202
325 325 324 323 322 322 321 322 324 325 325 327 328 330 331 333 336 335 338 340 340 338 338 340 338 341 345 347 342 336 331 323 313 306 299 288 270 260 269 261 243 216 195